• In Germany
  • List of Countries
  • For 7 days
  • Water Temperature
  • Satellite Maps
  • Weather Map
  • Weather Widgets
  • user-avatar
    Login

    Hourly Weather Gamboma

    Today, 23 November, Thursday

    Time Temperature Precipitation Wind Pressure Humidity
    00:00 +25°C° 0.4 mm 2 mps 727 mmHg 91%
    01:00 +24°C° 0.4 mm 1 mps 727 mmHg 91%
    02:00 +24°C° 0.3 mm 1 mps 727 mmHg 91%
    03:00 +24°C° 0.3 mm 1 mps 727 mmHg 92%
    04:00 +24°C° 0.3 mm 1 mps 727 mmHg 92%
    05:00 +24°C° 0.2 mm 1 mps 727 mmHg 91%
    06:00 +25°C° 0.2 mm 1 mps 727 mmHg 89%
    07:00 +25°C° 0.2 mm 1 mps 728 mmHg 88%
    08:00 +27°C° 0.1 mm 1 mps 728 mmHg 79%
    09:00 +29°C° 0.1 mm 2 mps 728 mmHg 70%
    10:00 +31°C° 0.1 mm 2 mps 728 mmHg 62%
    11:00 +32°C° 0.3 mm 1 mps 728 mmHg 58%
    12:00 +33°C° 0.3 mm 1 mps 727 mmHg 55%
    13:00 +34°C° 0.3 mm 1 mps 727 mmHg 51%
    14:00 +33°C° 0.4 mm 1 mps 726 mmHg 56%
    15:00 +32°C° 0.4 mm 1 mps 726 mmHg 60%
    16:00 +31°C° 0.4 mm 1 mps 725 mmHg 64%
    17:00 +30°C° 0.3 mm 1 mps 725 mmHg 70%
    18:00 +28°C° 0.3 mm 1 mps 726 mmHg 75%
    19:00 +27°C° 0.3 mm 1 mps 726 mmHg 80%
    20:00 +26°C° 1.5 mm 1 mps 727 mmHg 84%
    21:00 +26°C° 1.5 mm 1 mps 727 mmHg 87%
    22:00 +25°C° 1.5 mm 1 mps 728 mmHg 91%
    23:00 +25°C° 1.1 mm 1 mps 728 mmHg 92%

    Tomorrow, 24 November, Friday

    Time Temperature Precipitation Wind Pressure Humidity
    00:00 +25°C° 1.1 mm 1 mps 728 mmHg 92%
    01:00 +24°C° 1.1 mm 1 mps 728 mmHg 93%
    02:00 +24°C° 0.2 mm 1 mps 727 mmHg 93%
    03:00 +24°C° 0.2 mm 1 mps 727 mmHg 93%
    04:00 +24°C° 0.2 mm 2 mps 727 mmHg 93%
    05:00 +25°C° 0.1 mm 2 mps 727 mmHg 92%
    06:00 +25°C° 0.1 mm 2 mps 728 mmHg 91%
    07:00 +25°C° 0.1 mm 2 mps 728 mmHg 90%
    08:00 +27°C° 0.9 mm 2 mps 728 mmHg 85%
    09:00 +28°C° 0.9 mm 2 mps 729 mmHg 80%
    10:00 +29°C° 0.9 mm 2 mps 729 mmHg 75%
    11:00 +30°C° 0.9 mm 2 mps 728 mmHg 71%
    12:00 +31°C° 0.9 mm 2 mps 728 mmHg 66%
    13:00 +32°C° 0.9 mm 1 mps 727 mmHg 62%
    14:00 +32°C° 1 mm 1 mps 727 mmHg 64%
    15:00 +31°C° 1 mm 1 mps 726 mmHg 66%
    16:00 +31°C° 1 mm 1 mps 726 mmHg 67%
    17:00 +29°C° 1.2 mm 1 mps 726 mmHg 74%
    18:00 +27°C° 1.2 mm 2 mps 727 mmHg 81%
    19:00 +26°C° 1.2 mm 2 mps 727 mmHg 87%
    20:00 +25°C° 0.1 mm 2 mps 728 mmHg 88%
    21:00 +25°C° 0.1 mm 2 mps 728 mmHg 89%
    22:00 +24°C° 0.1 mm 2 mps 729 mmHg 90%
    23:00 +24°C° 0 mm 2 mps 729 mmHg 90%

    Day after tomorrow, 25 November, Saturday

    Time Temperature Precipitation Wind Pressure Humidity
    00:00 +24°C° 0 mm 2 mps 728 mmHg 90%
    01:00 +24°C° 0 mm 2 mps 728 mmHg 90%
    02:00 +24°C° 0 mm 2 mps 728 mmHg 90%
    03:00 +24°C° 0 mm 2 mps 728 mmHg 91%
    04:00 +24°C° 0 mm 2 mps 727 mmHg 91%
    05:00 +24°C° 0 mm 2 mps 728 mmHg 89%
    06:00 +25°C° 0 mm 2 mps 729 mmHg 88%
    07:00 +25°C° 0 mm 2 mps 729 mmHg 86%
    08:00 +27°C° 0 mm 2 mps 729 mmHg 79%
    09:00 +28°C° 0 mm 3 mps 730 mmHg 71%
    10:00 +30°C° 0 mm 3 mps 730 mmHg 63%
    11:00 +31°C° 0 mm 2 mps 729 mmHg 59%
    12:00 +32°C° 0 mm 2 mps 728 mmHg 55%
    13:00 +34°C° 0 mm 2 mps 728 mmHg 51%
    14:00 +32°C° 0.6 mm 2 mps 727 mmHg 58%
    15:00 +31°C° 0.6 mm 2 mps 727 mmHg 66%
    16:00 +29°C° 0.6 mm 2 mps 726 mmHg 73%
    17:00 +28°C° 0.7 mm 2 mps 727 mmHg 77%
    18:00 +27°C° 0.7 mm 1 mps 727 mmHg 81%
    19:00 +26°C° 0.7 mm 1 mps 728 mmHg 86%
    20:00 +25°C° 0.1 mm 1 mps 729 mmHg 86%
    21:00 +25°C° 0.1 mm 1 mps 729 mmHg 87%
    22:00 +25°C° 0.1 mm 1 mps 730 mmHg 88%
    23:00 +25°C° 0.5 mm 1 mps 729 mmHg 89%

    26 November, Sunday

    Time Temperature Precipitation Wind Pressure Humidity
    00:00 +25°C° 0.5 mm 1 mps 729 mmHg 90%
    01:00 +24°C° 0.5 mm 1 mps 729 mmHg 91%
    02:00 +24°C° 0.9 mm 1 mps 729 mmHg 91%
    03:00 +24°C° 0.9 mm 1 mps 729 mmHg 92%
    04:00 +24°C° 0.9 mm 1 mps 729 mmHg 92%
    05:00 +24°C° 0.3 mm 1 mps 729 mmHg 92%
    06:00 +24°C° 0.3 mm 1 mps 730 mmHg 92%
    07:00 +24°C° 0.3 mm 1 mps 730 mmHg 92%
    08:00 +25°C° 0.1 mm 2 mps 731 mmHg 88%
    09:00 +26°C° 0.1 mm 2 mps 731 mmHg 84%
    10:00 +27°C° 0.1 mm 2 mps 731 mmHg 79%
    11:00 +28°C° 0.1 mm 2 mps 730 mmHg 76%
    12:00 +28°C° 0.1 mm 2 mps 729 mmHg 72%
    13:00 +29°C° 0.1 mm 1 mps 729 mmHg 68%
    14:00 +29°C° 0 mm 1 mps 728 mmHg 69%
    15:00 +29°C° 0 mm 1 mps 728 mmHg 70%
    16:00 +29°C° 0 mm 1 mps 727 mmHg 70%
    17:00 +28°C° 0 mm 1 mps 728 mmHg 75%
    18:00 +27°C° 0 mm 1 mps 729 mmHg 80%
    19:00 +25°C° 0 mm 1 mps 729 mmHg 84%
    20:00 +25°C° 0 mm 1 mps 730 mmHg 84%
    21:00 +25°C° 0 mm 1 mps 730 mmHg 84%
    22:00 +25°C° 0 mm 1 mps 730 mmHg 84%
    23:00 +25°C° 0 mm 1 mps 730 mmHg 85%

    27 November, Monday

    Time Temperature Precipitation Wind Pressure Humidity
    00:00 +24°C° 0 mm 1 mps 730 mmHg 87%
    01:00 +24°C° 0 mm 1 mps 729 mmHg 88%
    02:00 +24°C° 0 mm 1 mps 729 mmHg 88%
    03:00 +24°C° 0 mm 1 mps 729 mmHg 89%
    04:00 +24°C° 0 mm 1 mps 729 mmHg 89%
    05:00 +24°C° 0 mm 1 mps 729 mmHg 87%
    06:00 +25°C° 0 mm 1 mps 730 mmHg 85%
    07:00 +25°C° 0 mm 1 mps 730 mmHg 83%
    08:00 +27°C° 0 mm 1 mps 730 mmHg 74%
    09:00 +29°C° 0 mm 1 mps 730 mmHg 66%
    10:00 +31°C° 0 mm 1 mps 730 mmHg 57%
    11:00 +32°C° 0 mm 1 mps 729 mmHg 54%
    12:00 +33°C° 0 mm 1 mps 729 mmHg 51%
    13:00 +35°C° 0 mm 1 mps 728 mmHg 48%
    14:00 +34°C° 0 mm 1 mps 727 mmHg 49%
    15:00 +34°C° 0 mm 1 mps 727 mmHg 51%
    16:00 +33°C° 0 mm 1 mps 727 mmHg 52%
    17:00 +31°C° 0.1 mm 1 mps 727 mmHg 57%
    18:00 +30°C° 0.1 mm 1 mps 727 mmHg 62%
    19:00 +26°C° 0.1 mm 0 mps 728 mmHg 67%
    20:00 +27°C° 0.2 mm 1 mps 728 mmHg 69%
    21:00 +27°C° 0.2 mm 1 mps 728 mmHg 72%
    22:00 +26°C° 0.2 mm 1 mps 729 mmHg 74%
    23:00 +26°C° 0.1 mm 1 mps 729 mmHg 76%

    28 November, Tuesday

    Time Temperature Precipitation Wind Pressure Humidity
    00:00 +25°C° 0.1 mm 1 mps 728 mmHg 78%
    01:00 +25°C° 0.1 mm 1 mps 728 mmHg 80%
    02:00 +25°C° 0.2 mm 1 mps 728 mmHg 81%
    03:00 +24°C° 0.2 mm 1 mps 728 mmHg 83%
    04:00 +24°C° 0.2 mm 1 mps 728 mmHg 85%
    05:00 +25°C° 0 mm 1 mps 728 mmHg 83%
    06:00 +25°C° 0 mm 1 mps 729 mmHg 82%
    07:00 +26°C° 0 mm 1 mps 729 mmHg 80%
    08:00 +28°C° 0.2 mm 1 mps 729 mmHg 72%
    09:00 +31°C° 0.2 mm 1 mps 729 mmHg 64%
    10:00 +33°C° 0.2 mm 1 mps 729 mmHg 55%
    11:00 +34°C° 0 mm 1 mps 728 mmHg 52%
    12:00 +35°C° 0 mm 1 mps 728 mmHg 48%
    13:00 +36°C° 0 mm 1 mps 727 mmHg 44%
    14:00 +35°C° 0 mm 1 mps 726 mmHg 48%
    15:00 +34°C° 0 mm 1 mps 726 mmHg 51%
    16:00 +32°C° 0 mm 1 mps 725 mmHg 55%
    17:00 +31°C° 0 mm 1 mps 726 mmHg 60%
    18:00 +30°C° 0 mm 1 mps 726 mmHg 64%
    19:00 +28°C° 0 mm 1 mps 727 mmHg 69%
    20:00 +28°C° 0.2 mm 1 mps 727 mmHg 73%
    21:00 +27°C° 0.2 mm 1 mps 728 mmHg 77%
    22:00 +26°C° 0.2 mm 2 mps 728 mmHg 81%
    23:00 +26°C° 0.4 mm 2 mps 728 mmHg 84%
    Show more